When you browse on this site, cookies collect data to enhance your experience and personalize the content and advertising you see.
Visit our Privacy Policy to learn more. By continuing to use the site, you agree to this use of cookies and data.
  • Em Portugal
  • Lista de países
  • Para 7 dias
  • Temperatura da água
  • Mapas de satélite
  • Mapa do tempo
  • Widgets de tempo
  • user-avatar
    Iniciar Sessão

    Previsão horária em Urishka

    Hoje, 24 Junho, Segunda-feira

    Tempo Temperatura Precipitação Vento Pressão Humidade
    00:00 +21°C° 0.1 mm 1 m/s 749 mmHg 91%
    01:00 +21°C° 0 mm 1 m/s 749 mmHg 91%
    02:00 +19°C° 0 mm 2 m/s 750 mmHg 91%
    03:00 +18°C° 0 mm 2 m/s 750 mmHg 87%
    04:00 +18°C° 0.2 mm 2 m/s 750 mmHg 87%
    05:00 +18°C° 0.2 mm 2 m/s 750 mmHg 86%
    06:00 +18°C° 0.2 mm 2 m/s 749 mmHg 86%
    07:00 +20°C° 0.2 mm 2 m/s 750 mmHg 82%
    08:00 +21°C° 0.2 mm 2 m/s 750 mmHg 78%
    09:00 +22°C° 0 mm 3 m/s 750 mmHg 74%
    10:00 +24°C° 0.3 mm 3 m/s 750 mmHg 71%
    11:00 +25°C° 0.3 mm 3 m/s 750 mmHg 68%
    12:00 +25°C° 0.3 mm 3 m/s 750 mmHg 65%
    13:00 +25°C° 0.1 mm 3 m/s 750 mmHg 65%
    14:00 +25°C° 0.1 mm 3 m/s 750 mmHg 64%
    15:00 +25°C° 0 mm 3 m/s 750 mmHg 70%
    16:00 +24°C° 0 mm 3 m/s 750 mmHg 70%
    17:00 +24°C° 0 mm 3 m/s 750 mmHg 70%
    18:00 +22°C° 0 mm 3 m/s 749 mmHg 70%
    19:00 +21°C° 0 mm 3 m/s 750 mmHg 73%
    20:00 +19°C° 0 mm 2 m/s 750 mmHg 77%
    21:00 +18°C° 0 mm 2 m/s 751 mmHg 80%
    22:00 +17°C° 0 mm 2 m/s 750 mmHg 80%
    23:00 +16°C° 0 mm 3 m/s 750 mmHg 80%

    Amanhã, 25 Junho, Terça-feira

    Tempo Temperatura Precipitação Vento Pressão Humidade
    00:00 +14°C° 0 mm 3 m/s 750 mmHg 80%
    01:00 +14°C° 0 mm 3 m/s 750 mmHg 77%
    02:00 +13°C° 0 mm 3 m/s 751 mmHg 74%
    03:00 +13°C° 0 mm 3 m/s 751 mmHg 71%
    04:00 +13°C° 0 mm 3 m/s 751 mmHg 72%
    05:00 +14°C° 0 mm 3 m/s 751 mmHg 72%
    06:00 +14°C° 0 mm 3 m/s 751 mmHg 73%
    07:00 +15°C° 0 mm 4 m/s 752 mmHg 70%
    08:00 +18°C° 0 mm 4 m/s 752 mmHg 67%
    09:00 +19°C° 0 mm 5 m/s 753 mmHg 64%
    10:00 +20°C° 0 mm 5 m/s 753 mmHg 61%
    11:00 +21°C° 0 mm 5 m/s 753 mmHg 57%
    12:00 +21°C° 0 mm 5 m/s 753 mmHg 54%
    13:00 +21°C° 0 mm 5 m/s 753 mmHg 54%
    14:00 +21°C° 0 mm 5 m/s 753 mmHg 55%
    15:00 +22°C° 0 mm 5 m/s 753 mmHg 55%
    16:00 +21°C° 0 mm 4 m/s 753 mmHg 59%
    17:00 +21°C° 0 mm 4 m/s 753 mmHg 63%
    18:00 +20°C° 0 mm 3 m/s 752 mmHg 67%
    19:00 +18°C° 0 mm 3 m/s 753 mmHg 71%
    20:00 +17°C° 0 mm 3 m/s 753 mmHg 76%
    21:00 +14°C° 0 mm 3 m/s 753 mmHg 80%
    22:00 +13°C° 0 mm 3 m/s 753 mmHg 82%
    23:00 +12°C° 0 mm 3 m/s 753 mmHg 85%

    Depois de amanhã, 26 Junho, Quarta-feira

    Tempo Temperatura Precipitação Vento Pressão Humidade
    00:00 +11°C° 0 mm 3 m/s 753 mmHg 88%
    01:00 +11°C° 0 mm 3 m/s 753 mmHg 87%
    02:00 +10°C° 0 mm 3 m/s 753 mmHg 87%
    03:00 +10°C° 0 mm 3 m/s 754 mmHg 87%
    04:00 +11°C° 0 mm 3 m/s 753 mmHg 85%
    05:00 +11°C° 0 mm 3 m/s 753 mmHg 82%
    06:00 +12°C° 0 mm 3 m/s 753 mmHg 80%
    07:00 +14°C° 0 mm 3 m/s 753 mmHg 73%
    08:00 +16°C° 0 mm 3 m/s 753 mmHg 67%
    09:00 +18°C° 0 mm 3 m/s 753 mmHg 61%
    10:00 +18°C° 0 mm 3 m/s 753 mmHg 58%
    11:00 +19°C° 0 mm 3 m/s 753 mmHg 55%
    12:00 +19°C° 0 mm 3 m/s 753 mmHg 52%
    13:00 +20°C° 0 mm 3 m/s 752 mmHg 52%
    14:00 +20°C° 0 mm 3 m/s 752 mmHg 52%
    15:00 +20°C° 0 mm 3 m/s 752 mmHg 51%
    16:00 +20°C° 0.1 mm 3 m/s 751 mmHg 56%
    17:00 +19°C° 0.1 mm 3 m/s 751 mmHg 61%
    18:00 +19°C° 0.1 mm 2 m/s 750 mmHg 66%
    19:00 +17°C° 0 mm 2 m/s 750 mmHg 70%
    20:00 +16°C° 0 mm 2 m/s 750 mmHg 74%
    21:00 +14°C° 0 mm 2 m/s 750 mmHg 77%
    22:00 +14°C° 0.1 mm 2 m/s 749 mmHg 80%
    23:00 +14°C° 0.1 mm 2 m/s 749 mmHg 83%

    27 Junho, Quinta-feira

    Tempo Temperatura Precipitação Vento Pressão Humidade
    00:00 +14°C° 0.1 mm 2 m/s 748 mmHg 86%
    01:00 +14°C° 0.2 mm 2 m/s 748 mmHg 89%
    02:00 +13°C° 0.2 mm 2 m/s 748 mmHg 91%
    03:00 +13°C° 0.2 mm 2 m/s 747 mmHg 94%
    04:00 +14°C° 0.4 mm 2 m/s 747 mmHg 94%
    05:00 +14°C° 0.4 mm 2 m/s 747 mmHg 94%
    06:00 +13°C° 0.4 mm 3 m/s 746 mmHg 94%
    07:00 +15°C° 0 mm 2 m/s 746 mmHg 90%
    08:00 +16°C° 0 mm 2 m/s 745 mmHg 85%
    09:00 +18°C° 0 mm 1 m/s 745 mmHg 81%
    10:00 +18°C° 0.3 mm 2 m/s 745 mmHg 79%
    11:00 +18°C° 0.3 mm 3 m/s 744 mmHg 77%
    12:00 +19°C° 0.3 mm 3 m/s 744 mmHg 75%
    13:00 +19°C° 0.1 mm 4 m/s 743 mmHg 76%
    14:00 +18°C° 0.1 mm 4 m/s 743 mmHg 77%
    15:00 +18°C° 0.1 mm 4 m/s 742 mmHg 79%
    16:00 +17°C° 1.1 mm 4 m/s 742 mmHg 85%
    17:00 +15°C° 1.1 mm 4 m/s 741 mmHg 91%
    18:00 +14°C° 1.1 mm 4 m/s 741 mmHg 97%
    19:00 +14°C° 1.4 mm 5 m/s 740 mmHg 97%
    20:00 +14°C° 1.4 mm 5 m/s 740 mmHg 97%
    21:00 +14°C° 1.4 mm 6 m/s 739 mmHg 97%
    22:00 +15°C° 1.7 mm 6 m/s 738 mmHg 96%
    23:00 +15°C° 1.7 mm 6 m/s 738 mmHg 96%

    28 Junho, Sexta-feira

    Tempo Temperatura Precipitação Vento Pressão Humidade
    00:00 +15°C° 1.7 mm 6 m/s 737 mmHg 96%
    01:00 +15°C° 0.1 mm 6 m/s 737 mmHg 96%
    02:00 +15°C° 0.1 mm 6 m/s 736 mmHg 95%
    03:00 +16°C° 0.1 mm 6 m/s 736 mmHg 95%
    04:00 +15°C° 0.3 mm 6 m/s 735 mmHg 95%
    05:00 +15°C° 0.3 mm 5 m/s 735 mmHg 94%
    06:00 +15°C° 0.3 mm 5 m/s 734 mmHg 94%
    07:00 +15°C° 0.1 mm 6 m/s 734 mmHg 92%
    08:00 +15°C° 0.1 mm 7 m/s 733 mmHg 89%
    09:00 +15°C° 0.1 mm 7 m/s 733 mmHg 87%
    10:00 +15°C° 1 mm 7 m/s 733 mmHg 90%
    11:00 +15°C° 1 mm 6 m/s 733 mmHg 92%
    12:00 +15°C° 1 mm 6 m/s 733 mmHg 95%
    13:00 +16°C° 0.6 mm 5 m/s 733 mmHg 91%
    14:00 +17°C° 0.6 mm 5 m/s 733 mmHg 86%
    15:00 +19°C° 0.6 mm 5 m/s 733 mmHg 82%
    16:00 +19°C° 0.2 mm 5 m/s 733 mmHg 82%
    17:00 +19°C° 0.2 mm 4 m/s 733 mmHg 81%
    18:00 +19°C° 0.2 mm 3 m/s 734 mmHg 81%
    19:00 +18°C° 0.2 mm 3 m/s 734 mmHg 84%
    20:00 +16°C° 0.2 mm 3 m/s 734 mmHg 88%
    21:00 +15°C° 0.2 mm 2 m/s 734 mmHg 92%
    22:00 +14°C° 0 mm 2 m/s 734 mmHg 93%
    23:00 +14°C° 0 mm 2 m/s 734 mmHg 93%

    29 Junho, Sábado

    Tempo Temperatura Precipitação Vento Pressão Humidade
    00:00 +13°C° 0 mm 2 m/s 734 mmHg 94%
    01:00 +11°C° 0 mm 3 m/s 734 mmHg 95%
    02:00 +11°C° 0 mm 3 m/s 734 mmHg 95%
    03:00 +11°C° 0 mm 3 m/s 734 mmHg 96%
    04:00 +11°C° 0 mm 3 m/s 734 mmHg 95%
    05:00 +12°C° 0 mm 4 m/s 735 mmHg 93%
    06:00 +12°C° 0 mm 4 m/s 735 mmHg 92%
    07:00 +13°C° 0 mm 5 m/s 735 mmHg 88%
    08:00 +14°C° 0 mm 5 m/s 735 mmHg 84%
    09:00 +15°C° 0 mm 5 m/s 735 mmHg 79%
    10:00 +16°C° 0.2 mm 5 m/s 736 mmHg 76%
    11:00 +18°C° 0.2 mm 4 m/s 736 mmHg 73%
    12:00 +19°C° 0.2 mm 4 m/s 736 mmHg 70%
    13:00 +19°C° 0.5 mm 4 m/s 736 mmHg 70%
    14:00 +19°C° 0.5 mm 4 m/s 736 mmHg 71%
    15:00 +20°C° 0.5 mm 4 m/s 736 mmHg 71%
    16:00 +19°C° 0.3 mm 4 m/s 736 mmHg 74%
    17:00 +19°C° 0.3 mm 3 m/s 736 mmHg 76%
    18:00 +19°C° 0.3 mm 3 m/s 737 mmHg 79%
    19:00 +17°C° 0.2 mm 2 m/s 737 mmHg 83%
    20:00 +16°C° 0.2 mm 2 m/s 737 mmHg 86%
    21:00 +15°C° 0.2 mm 2 m/s 737 mmHg 90%
    22:00 +14°C° 0 mm 1 m/s 737 mmHg 91%
    23:00 +13°C° 0 mm 1 m/s 737 mmHg 91%
    Mostrar mais